Theta_e
355 356 355 354 352 348 342 340 337 337 337 337 338 338 337 337 336 336 336 335 336 337 337 337 337 338 336 336 335 335 335 335 337 336 338 338 341 341 340 341 342 342 341
358 357 354 350 343 340 338 337 336 336 336 337 337 337 336 336 335 335 334 334 335 336 336 337 338 338 339 338 339 337 337 337 336 339 337 338 337 337 340 342 339 339 339
357 356 351 345 339 337 336 335 335 335 335 335 336 336 336 335 334 334 335 335 336 335 337 336 337 338 338 340 340 340 339 340 338 338 338 336 338 337 340 338 338 338 341
355 353 346 340 338 337 335 335 334 335 335 335 336 336 335 334 333 332 332 333 333 334 334 336 336 336 335 336 336 337 337 339 337 337 338 336 336 337 339 340 339 338 338
353 351 342 340 338 336 335 334 333 335 335 335 335 335 334 332 333 332 332 331 330 330 332 332 334 334 330 330 330 334 335 336 336 337 337 338 340 341 341 339 337 337 340
351 347 342 341 338 336 334 334 334 334 334 334 334 334 334 332 327 326 327 330 329 328 326 326 328 330 332 330 331 329 329 333 336 338 337 339 339 340 340 339 340 340 342
351 344 342 341 338 337 334 333 334 334 334 333 333 333 333 333 331 326 327 328 329 328 326 323 324 328 330 329 330 331 333 333 333 335 337 338 338 337 337 337 338 339 339
347 343 342 340 339 337 335 334 334 333 333 333 331 330 332 333 332 329 327 327 329 328 326 322 324 326 328 325 327 329 331 333 335 334 334 333 332 330 330 333 333 336 340
344 342 341 339 339 338 335 334 333 333 332 332 330 330 331 332 330 330 326 327 327 328 324 319 325 324 326 321 324 328 328 330 332 331 330 329 328 327 326 331 334 334 335
342 341 341 339 339 338 337 335 333 332 331 330 328 330 330 330 329 329 326 326 325 323 319 317 324 323 320 319 321 326 326 328 328 330 330 330 329 330 328 331 331 331 331
341 341 341 340 340 340 338 334 333 332 331 332 330 329 329 326 328 327 323 323 320 319 315 315 324 322 320 317 318 321 325 321 323 327 329 329 330 328 327 326 326 326 327
341 342 342 341 339 338 336 333 332 332 331 330 330 329 328 328 322 322 313 313 314 315 315 315 323 321 319 317 317 319 321 319 321 325 324 324 324 324 323 323 323 323 322
341 341 340 341 340 336 335 334 332 331 329 327 327 329 327 327 324 321 316 312 309 309 312 317 318 315 314 315 318 319 318 320 322 320 320 320 320 318 317 316 317 318 317
340 342 343 341 338 336 334 332 330 327 325 326 326 326 325 324 324 322 320 318 317 313 315 317 319 315 315 316 317 318 319 319 317 316 316 318 318 316 315 314 314 314 313
342 343 341 338 336 333 333 329 326 326 326 326 326 326 325 325 323 322 321 318 317 317 315 316 318 319 320 321 320 319 319 318 318 318 317 317 317 317 315 315 314 314 314
342 339 336 332 330 328 327 327 327 323 320 322 323 320 321 321 321 322 319 318 317 314 312 316 318 319 320 319 319 318 318 318 318 318 317 317 317 317 317 316 315 314 315
336 332 330 327 326 326 326 326 325 325 322 320 320 318 318 317 318 320 321 320 318 316 313 316 318 319 319 320 320 318 318 318 319 318 317 316 316 316 316 316 315 314 315
333 328 329 328 328 328 328 327 326 326 326 325 323 321 319 318 317 317 318 319 316 316 315 317 318 319 319 320 320 320 319 318 318 318 318 317 316 316 316 316 316 315 315
332 330 329 329 329 329 329 326 327 328 329 328 327 323 321 320 319 317 315 315 319 319 319 321 321 321 321 320 320 320 320 319 318 318 318 317 316 316 316 316 316 314 314
332 331 329 329 328 328 328 329 329 330 329 328 329 327 327 321 319 320 319 318 319 320 319 320 321 321 322 322 322 321 321 320 320 320 320 319 318 316 315 315 315 315 315
331 331 330 331 331 332 331 331 331 330 330 330 330 329 327 325 326 325 325 324 323 323 323 323 322 322 323 323 323 323 322 321 321 320 320 320 320 318 316 316 315 315 315
331 331 329 330 330 330 329 329 330 330 330 329 330 330 326 326 328 325 326 324 323 323 324 325 325 324 325 324 324 324 324 323 322 321 321 320 320 320 318 317 316 315 315
325 325 325 325 324 323 324 323 321 321 321 320 320 322 321 319 319 318 317 315 317 317 318 320 321 321 322 322 324 325 325 323 323 321 321 321 320 319 319 318 317 316 316
318 317 316 316 317 316 316 316 316 316 314 312 310 309 309 308 307 307 307 307 308 308 308 309 310 311 314 317 318 314 316 319 321 320 321 320 318 319 319 318 318 318 317
310 310 310 310 310 311 311 310 310 310 310 309 309 309 309 308 308 307 306 306 305 305 304 304 306 306 307 307 309 308 311 307 312 318 319 318 318 317 317 317 318 319 317
308 308 308 308 308 307 307 307 306 307 306 306 306 306 305 305 305 304 304 304 304 303 303 303 303 304 304 305 307 303 302 303 303 306 309 310 316 319 318 318 318 317 318
Wind_Speed
14 13 12 10 8 6 5 4 3 1 1 1 1 1 3 4 6 8 9 9 9 8 7 6 7 7 6 8 8 8 9 10 11 13 12 9 9 10 12 12 13 14 14
13 13 13 12 9 7 6 4 3 2 2 2 1 1 2 3 6 8 8 8 7 7 7 7 8 7 6 9 8 7 8 10 11 11 13 12 10 11 10 9 11 12 11
14 15 14 12 10 9 8 6 4 3 2 2 2 1 3 4 4 4 5 7 6 6 7 7 8 9 9 10 8 9 12 9 8 10 13 12 8 8 6 10 10 9 9
17 15 14 12 9 8 6 5 3 2 1 2 1 1 3 4 4 3 3 3 4 6 5 5 5 4 10 10 9 8 9 10 9 11 13 12 7 5 7 10 13 7 9
18 16 14 12 10 9 7 5 4 4 1 1 2 3 3 4 5 1 4 4 5 5 5 5 5 7 10 10 10 11 10 11 13 11 8 10 11 11 11 10 12 12 12
20 17 16 14 11 9 7 6 5 4 2 2 2 4 4 5 2 1 4 8 6 7 7 8 8 11 7 11 13 12 10 8 10 10 11 7 7 9 10 8 9 11 6
19 18 16 14 11 8 7 6 6 5 4 3 4 5 6 7 6 5 6 8 8 7 8 8 9 3 6 7 9 12 13 11 7 6 8 8 6 5 6 8 9 10 12
18 17 17 15 12 10 9 7 5 4 5 5 5 7 8 7 11 8 8 8 10 7 9 9 7 8 5 8 9 10 10 10 10 7 7 6 6 6 7 10 15 17 15
19 16 15 14 13 11 8 5 4 4 5 5 5 6 8 8 10 8 8 9 12 8 10 8 7 7 6 8 9 10 9 12 8 9 8 8 9 7 9 10 9 11 6
16 15 13 11 10 8 6 5 5 6 6 6 5 6 6 7 10 10 10 10 12 10 9 11 11 7 8 6 7 10 8 8 8 9 11 8 6 6 5 5 8 10 7
13 12 10 9 6 3 4 4 4 5 5 5 7 7 8 7 7 8 8 8 11 9 10 10 7 6 5 7 7 8 10 11 11 12 13 11 9 6 4 4 6 7 7
11 8 6 5 4 5 4 5 5 6 7 8 8 9 13 10 8 8 6 8 11 10 10 10 3 5 9 9 8 10 11 12 12 13 8 8 5 5 3 3 6 5 3
21 16 13 7 6 4 5 6 7 8 8 11 10 12 8 11 7 8 7 7 9 10 10 11 12 12 8 10 12 10 11 11 12 9 9 6 5 6 7 8 8 7 6
16 12 10 8 7 6 7 9 9 10 10 9 9 9 8 7 8 9 7 8 6 7 7 12 9 11 12 9 10 12 10 9 7 10 10 8 7 8 7 4 7 6 7
12 10 7 8 9 8 10 10 11 9 9 9 9 9 8 10 2 1 4 6 6 5 8 10 12 13 12 13 13 10 9 10 10 9 9 9 9 8 8 7 8 7 8
9 7 7 9 9 9 9 10 14 10 11 14 17 16 13 14 13 10 11 13 14 13 10 13 14 12 11 10 11 11 11 10 10 10 10 10 11 10 10 9 9 9 10
5 4 5 7 7 6 7 8 10 12 13 13 13 17 20 18 17 16 15 14 14 14 13 15 15 15 13 12 11 11 11 11 5 9 13 13 13 13 11 12 12 13 12
5 2 5 6 6 7 8 9 10 11 11 13 18 19 17 18 19 20 20 18 14 16 18 18 17 16 16 14 13 12 11 12 12 12 12 13 13 14 14 14 14 14 13
6 7 7 8 8 8 9 12 16 18 14 15 12 8 20 20 17 17 18 17 18 18 19 19 18 17 15 15 14 13 14 14 14 13 14 14 14 15 16 17 16 16 14
9 8 7 10 11 10 13 16 17 16 15 20 22 13 14 21 16 17 21 20 18 18 20 21 20 18 17 16 16 17 17 17 17 16 16 14 14 16 18 18 18 18 16
7 8 8 12 14 13 16 16 17 16 20 18 17 17 12 9 20 16 16 15 19 18 18 19 20 20 19 18 19 19 20 21 20 19 18 18 16 17 17 19 18 19 19
5 7 6 7 9 9 10 13 12 14 15 15 16 15 12 10 13 15 14 15 16 14 14 14 19 16 17 17 17 25 23 22 21 22 22 21 18 18 18 19 19 20 21
7 9 10 8 9 10 10 10 11 11 12 12 12 12 11 11 12 13 14 16 17 17 16 15 16 18 15 16 17 22 29 20 22 24 19 19 23 22 22 21 20 20 22
10 11 12 12 11 10 11 9 10 6 7 9 9 9 10 13 12 14 15 17 17 15 16 15 19 19 20 22 19 19 22 17 16 16 25 23 18 21 24 24 23 23 22
9 10 11 11 11 12 13 14 14 15 13 13 13 12 12 12 12 12 14 14 17 19 22 22 20 23 24 25 24 24 25 28 16 16 17 16 21 22 23 25 19 23 28
8 9 9 9 9 9 9 9 10 10 11 11 10 11 12 12 12 13 13 13 16 18 18 18 19 20 22 21 19 22 29 30 29 26 20 18 18 22 24 30 31 25 27
Wind_Direction
176 167 151 152 153 147 139 135 136 149 117 88 55 26 16 356 348 344 331 320 327 324 321 312 309 305 298 298 297 290 283 280 280 286 315 305 339 302 287 296 293 294 285
153 160 154 153 150 145 144 134 131 172 167 156 112 48 357 352 343 339 335 333 327 325 326 319 319 318 302 274 284 273 287 290 282 297 282 285 300 288 277 293 297 292 301
168 165 159 157 158 151 149 151 152 178 163 126 123 65 317 320 331 345 341 337 330 328 353 332 330 333 319 330 325 317 315 309 281 286 300 285 287 291 291 287 276 273 269
173 167 163 163 153 147 148 134 141 153 149 106 233 263 282 298 314 344 348 344 333 331 327 324 326 341 337 332 312 308 330 310 293 288 287 295 283 338 351 357 335 290 316
170 168 163 155 155 153 143 140 153 140 142 221 252 250 275 292 254 72 318 311 326 321 316 307 307 303 310 321 312 322 321 310 303 308 310 316 341 348 10 336 323 328 344
173 169 162 161 166 157 148 155 160 149 194 183 255 271 270 291 96 313 304 309 315 317 327 318 303 279 265 320 317 315 303 306 303 313 309 332 334 330 9 351 325 328 322
173 165 166 165 156 163 165 170 169 174 203 224 245 264 272 255 250 286 290 300 303 310 312 315 308 19 345 317 309 304 301 287 303 294 290 303 320 357 337 319 315 306 297
169 167 165 164 161 175 182 179 181 192 219 231 252 265 266 259 263 264 279 293 281 281 301 300 296 303 303 324 310 293 297 289 269 287 307 330 325 322 321 300 284 282 278
172 173 173 167 171 182 184 179 202 221 231 243 255 263 255 252 251 254 272 274 277 284 288 287 277 291 304 312 307 293 295 311 277 274 297 298 312 310 334 316 325 295 14
168 167 172 172 179 182 187 194 208 223 241 256 258 254 263 270 263 263 268 267 283 283 289 254 241 240 282 298 304 298 281 295 305 289 270 274 278 287 321 339 322 311 314
159 159 169 171 168 207 205 205 226 240 273 252 263 254 257 256 247 260 263 263 287 293 290 285 184 218 292 288 289 287 306 304 292 265 258 247 218 241 235 345 331 327 320
147 155 163 179 195 185 219 226 231 242 250 253 256 259 249 214 230 252 264 265 270 282 283 281 236 288 295 271 273 271 278 284 276 270 270 266 272 279 282 300 303 304 309
156 170 162 197 216 214 233 251 259 243 262 259 246 237 253 193 221 233 269 280 276 268 267 287 283 287 288 273 256 264 273 266 271 281 274 280 278 284 301 268 251 252 257
163 175 165 198 214 230 247 248 248 263 258 261 265 266 270 267 257 207 216 246 256 281 252 263 252 267 255 255 256 248 242 262 293 292 290 286 279 270 269 273 284 283 289
163 186 177 205 205 242 242 262 266 262 274 289 281 291 287 277 8 207 230 288 288 283 287 291 270 258 254 232 247 250 255 261 256 269 273 273 271 270 268 262 273 277 270
184 190 210 224 220 231 251 247 237 241 260 259 265 267 266 274 281 281 275 265 258 263 274 275 278 277 275 276 274 271 265 253 259 262 270 270 267 268 267 260 255 263 270
202 203 218 227 255 245 254 269 286 244 243 245 252 250 253 252 260 257 250 254 254 256 256 267 269 273 276 279 283 283 280 278 282 274 275 273 268 267 261 258 260 258 258
214 235 244 255 256 264 266 270 274 272 268 255 247 239 242 250 251 250 251 252 246 251 248 256 263 272 274 269 270 277 280 276 265 262 261 266 265 265 265 261 257 255 260
231 249 225 252 263 279 295 303 294 290 299 303 287 220 236 235 238 241 240 236 252 259 256 251 258 257 258 267 271 268 268 268 268 272 272 267 264 262 262 260 261 260 271
241 239 286 289 290 294 279 274 274 276 296 291 282 281 283 221 218 230 238 231 239 254 261 263 267 266 267 261 261 261 259 254 252 250 255 257 260 264 264 264 261 261 258
307 303 293 298 297 300 307 320 308 303 301 293 307 329 321 279 271 265 288 239 228 247 255 257 260 263 264 259 253 256 258 260 257 254 253 254 254 257 255 257 261 263 260
319 307 327 315 310 311 322 315 332 315 309 314 308 310 8 344 328 355 358 349 345 346 342 332 322 296 288 282 277 275 251 255 258 259 252 248 250 250 255 257 259 258 256
320 320 312 310 317 323 315 327 344 340 335 334 331 327 341 342 339 343 345 342 340 337 337 338 321 323 332 337 335 305 282 266 267 271 275 274 256 250 254 256 257 253 256
324 320 324 316 318 317 300 314 300 299 321 323 329 333 333 333 331 331 331 331 330 334 327 332 321 326 323 318 325 341 347 330 301 297 272 257 269 269 260 258 259 260 256
339 338 331 332 328 329 330 324 326 324 326 322 320 322 324 320 318 326 330 336 333 336 331 328 331 332 333 325 316 314 310 325 340 290 295 284 265 257 267 269 262 269 260
357 352 345 344 345 343 339 337 336 334 338 334 336 333 333 328 332 335 334 337 339 335 335 331 324 321 317 316 318 334 335 329 322 322 322 310 280 276 275 270 260 265 263